Theta_e
320 320 318 316 314 313 315 317 319 317 314 319 311 309 310 311 314 318 321 318 322 322 321 320 320 320 319 319 321 321 321 320 319 321 321 325 324 326 325 325 326 325 325 323 324 324 326 322 324 328 326 325 325 333
320 320 318 316 314 314 316 318 319 320 314 317 315 308 309 311 312 319 321 316 319 323 321 319 318 317 318 318 320 319 321 320 319 320 321 322 322 322 323 326 323 326 325 328 325 327 323 321 322 322 323 325 325 329
319 319 317 316 314 315 317 319 319 320 316 316 316 308 309 311 312 318 320 315 321 320 320 319 319 319 318 318 318 320 320 319 319 319 320 321 321 320 321 320 321 322 323 326 325 324 323 321 321 321 322 324 327 328
318 317 316 315 314 317 318 318 318 319 316 315 317 308 309 310 312 318 320 317 321 322 321 320 319 320 318 318 318 318 319 317 317 318 319 320 320 319 321 322 322 321 321 323 324 323 323 321 321 321 322 322 325 328
316 316 314 314 317 318 317 317 317 317 316 315 316 308 309 309 311 314 318 315 316 323 321 321 320 319 318 319 318 318 318 319 318 319 319 320 320 320 320 321 321 320 321 321 321 322 321 323 321 320 320 322 323 325
315 313 313 316 318 317 316 316 315 316 316 316 313 308 309 309 310 313 319 313 317 321 322 322 320 320 319 318 318 320 319 318 318 319 320 320 319 321 321 325 320 320 321 321 320 321 322 322 320 320 320 319 322 323
312 313 314 314 317 316 315 313 315 315 315 317 309 308 309 309 310 320 318 320 318 320 322 322 322 320 320 320 320 321 321 320 320 319 320 320 320 318 321 327 317 319 321 321 321 321 321 320 321 320 320 319 317 321
311 313 311 311 315 315 314 313 314 315 316 314 308 309 310 310 311 315 321 318 318 323 324 323 324 321 319 320 321 320 321 321 321 321 319 320 319 319 325 319 319 318 319 320 320 320 321 320 319 319 319 319 319 319
312 312 308 310 315 314 313 313 314 315 316 308 309 312 314 313 318 320 320 320 318 322 323 323 325 324 320 322 322 321 321 323 320 321 320 319 317 315 320 317 318 317 318 318 318 318 317 317 317 316 316 317 318 319
312 309 308 314 315 314 313 313 314 315 308 308 313 318 321 321 319 319 320 319 320 321 322 325 323 325 321 322 322 322 322 323 323 322 318 321 322 317 318 317 317 316 317 317 316 316 315 315 315 315 316 317 317 318
309 312 315 316 315 314 315 315 312 307 308 312 318 322 321 321 321 321 321 320 320 321 320 322 323 324 321 323 324 322 323 322 324 323 321 323 322 318 319 316 317 316 316 316 315 315 315 315 316 316 317 317 317 318
312 313 315 315 314 314 315 309 307 308 309 315 319 321 321 321 322 323 323 321 322 320 322 322 323 322 321 323 322 322 323 322 323 319 320 322 320 319 316 316 315 315 316 316 315 314 314 316 316 316 316 316 316 317
310 309 313 314 314 315 312 306 307 309 314 318 318 320 322 321 323 322 322 322 323 321 322 321 323 322 320 322 322 322 323 321 319 321 324 321 321 319 317 316 315 315 316 316 315 314 315 315 316 315 315 315 315 315
310 309 310 314 314 313 306 306 311 313 315 318 319 318 322 322 321 321 320 320 321 322 322 320 321 321 321 322 322 322 321 320 322 323 323 319 318 320 318 317 315 314 315 315 316 315 315 315 315 315 314 314 314 314
311 310 309 309 311 312 308 306 307 309 311 316 316 319 318 317 319 321 321 323 324 323 322 321 321 321 322 323 321 322 322 322 323 324 321 318 321 322 320 317 317 316 315 316 317 316 316 316 316 316 316 315 314 314
312 312 310 309 309 311 308 309 309 311 312 313 313 317 318 320 318 320 323 323 324 322 321 320 322 323 323 322 322 322 322 323 321 321 319 320 322 322 321 318 318 318 317 317 318 317 318 317 316 315 313 311 310 309
313 314 311 308 310 310 311 310 310 311 312 313 314 314 314 319 321 322 324 325 324 322 323 322 323 324 323 323 323 322 323 322 322 321 321 319 318 320 320 319 318 319 319 319 319 317 316 313 311 309 309 308 308 309
312 312 310 308 310 310 311 310 310 310 312 313 314 314 315 315 317 319 319 323 323 324 324 324 323 325 324 324 324 324 322 322 322 322 322 319 315 314 317 320 319 319 319 317 315 313 311 309 308 308 308 308 309 308
311 313 307 307 308 311 313 313 313 315 315 314 315 315 316 315 315 317 319 321 322 325 324 324 324 325 324 323 323 322 323 323 323 323 323 319 314 315 318 319 318 317 314 313 311 311 310 309 308 308 308 308 308 307
309 312 310 309 309 313 313 315 314 316 316 317 317 317 317 317 318 317 317 319 320 322 323 323 324 323 323 323 324 324 323 325 323 323 323 320 318 317 315 315 314 312 311 311 310 308 309 309 308 308 308 307 308 308
309 309 311 310 311 311 314 316 317 318 319 320 321 321 321 321 321 321 321 322 323 322 323 321 321 322 323 325 325 324 325 324 323 323 324 322 318 315 314 313 312 311 312 311 309 309 309 309 308 307 307 307 307 307
311 310 310 311 310 313 313 314 316 317 318 319 319 320 321 322 323 324 324 323 323 322 323 321 321 323 324 326 326 326 325 324 323 324 322 320 316 313 312 311 311 313 311 309 309 310 309 309 308 307 307 307 306 307
310 310 311 313 313 314 313 315 317 317 317 317 319 319 318 319 320 323 323 322 322 322 322 323 324 324 322 326 325 323 322 322 324 323 319 316 313 312 312 313 314 313 310 310 310 309 308 307 306 307 307 306 306 307
311 312 313 314 314 313 315 317 318 318 318 318 318 318 319 322 322 323 322 322 323 326 325 323 325 326 327 324 326 326 324 322 322 319 316 316 313 313 315 315 313 311 310 310 309 307 307 307 307 307 307 307 307 306
311 312 312 311 314 315 316 318 318 318 319 320 320 320 323 323 324 322 322 323 325 325 325 326 327 327 326 326 325 322 319 320 318 317 315 315 315 316 314 312 311 310 309 308 307 307 307 307 307 307 307 306 306 306
310 312 311 313 315 316 317 319 320 320 320 320 320 319 321 322 319 321 324 324 324 325 326 326 326 325 325 325 325 322 319 319 319 317 316 315 315 313 313 313 311 310 308 308 307 307 307 307 307 307 306 306 304 305
314 315 314 314 316 317 318 318 319 319 319 320 321 322 323 323 323 324 323 323 324 321 320 322 323 324 323 323 321 318 319 319 318 316 315 313 313 314 314 312 310 309 308 308 307 307 307 307 306 306 306 306 305 305
314 316 316 317 316 316 317 317 318 320 320 319 321 322 322 318 317 319 321 320 319 318 318 320 321 321 322 321 317 315 315 316 316 314 313 314 315 315 313 311 311 309 308 308 308 308 307 307 307 307 306 305 305 304
315 315 316 317 317 317 318 318 318 319 320 319 321 321 320 319 319 319 320 319 318 317 321 321 321 321 320 318 316 314 313 314 313 312 311 312 312 312 312 311 310 309 308 309 308 308 308 308 308 307 306 305 304 304
314 314 315 315 316 316 316 316 318 320 319 320 320 319 319 319 319 320 320 319 318 319 319 319 319 319 318 317 314 313 312 312 311 310 311 310 309 309 309 309 309 309 309 309 308 307 307 307 307 306 305 304 304 304
312 313 313 313 313 313 314 314 315 316 318 318 318 318 320 321 320 320 320 318 316 317 317 317 316 316 316 315 314 313 314 313 313 312 310 310 309 309 308 308 307 307 307 308 307 307 307 306 306 305 304 304 304 304
313 313 314 315 316 316 316 315 315 314 315 316 317 321 321 321 322 319 316 316 316 316 315 315 315 314 314 314 314 313 313 312 312 311 309 309 308 308 308 307 307 306 306 306 306 306 306 306 305 304 304 305 305 305
315 315 314 314 315 317 318 318 318 318 319 320 322 323 322 322 322 319 316 315 316 314 314 314 313 313 312 311 311 310 308 309 310 308 308 308 308 307 307 307 306 305 305 305 305 306 306 305 305 305 305 305 305 305
Wind_Speed
21 22 23 24 25 22 20 18 15 14 12 8 7 7 5 5 4 3 3 2 4 2 6 4 4 3 3 3 4 5 5 5 3 3 2 2 2 2 2 1 3 3 3 3 2 4 4 10 1 5 7 7 9 2
21 23 24 25 25 22 20 18 16 14 13 11 8 8 7 5 6 5 1 2 5 1 7 8 7 6 3 1 3 2 4 1 3 1 1 2 3 3 2 3 2 3 4 4 4 5 5 7 9 7 8 9 7 5
24 24 24 25 24 21 19 18 16 14 14 13 9 9 8 6 7 7 6 3 4 7 8 9 8 5 3 2 1 5 3 2 2 0 0 1 2 2 3 3 3 3 1 2 3 6 5 5 5 8 10 10 8 1
22 24 25 25 22 19 17 16 16 12 13 13 11 10 9 7 8 7 6 7 7 5 5 6 7 4 4 2 1 1 2 4 5 2 4 3 2 2 1 2 4 3 5 3 4 4 3 5 5 5 8 9 10 6
24 25 25 24 18 17 17 17 15 12 13 14 12 10 9 8 8 8 7 6 10 5 3 8 7 5 5 5 5 5 4 3 4 5 4 2 1 4 2 2 5 8 5 5 2 6 3 6 3 3 4 6 7 6
23 23 23 21 17 17 18 18 15 13 14 14 13 10 10 9 9 8 5 8 10 9 4 5 4 8 7 7 6 5 4 3 1 3 2 2 1 4 2 3 4 7 5 3 2 3 3 4 3 2 0 2 3 4
20 20 20 20 19 19 20 18 13 11 14 14 12 10 9 10 12 7 2 5 13 11 5 4 6 8 10 8 4 3 3 2 1 2 2 2 4 4 2 3 4 8 8 7 6 5 5 5 4 1 2 1 3 2
17 17 18 20 18 18 17 9 10 11 14 14 11 9 9 9 9 8 5 6 12 6 4 3 3 8 13 9 7 4 3 3 1 2 3 3 3 2 4 9 6 9 9 9 8 7 4 4 3 3 2 2 4 7
14 17 18 18 17 16 9 7 8 13 14 12 9 8 7 7 6 8 8 6 11 5 4 4 5 4 12 8 3 4 3 3 2 3 2 3 1 4 7 8 10 11 10 6 10 8 7 6 5 5 5 5 8 8
15 17 18 16 12 9 5 7 10 14 13 12 12 5 5 7 8 10 3 5 6 6 5 5 6 4 12 11 8 4 3 1 2 2 3 4 4 16 8 8 9 11 10 8 8 8 7 6 6 5 4 4 5 7
15 17 15 12 7 4 3 7 13 14 13 12 5 3 5 12 8 5 5 6 7 5 9 11 13 7 6 7 5 3 2 2 2 3 3 3 4 6 9 15 12 12 11 9 7 5 5 4 3 3 4 3 3 3
13 14 12 7 6 7 8 12 13 14 11 9 6 7 11 5 4 5 5 5 5 5 7 14 14 9 7 5 4 5 2 3 2 5 3 3 4 7 11 17 16 14 13 10 7 6 6 6 4 3 1 1 1 2
8 11 8 5 9 8 12 11 12 14 11 9 5 6 6 5 3 6 8 5 5 7 10 13 12 11 6 6 3 4 5 2 3 3 3 5 6 10 12 15 17 16 15 12 9 7 7 8 7 5 3 2 2 2
7 9 7 4 8 13 13 10 12 13 10 4 6 2 6 5 5 5 6 5 6 6 15 19 17 9 5 7 4 4 2 4 3 3 4 4 11 12 15 17 18 20 19 16 13 11 9 9 8 6 4 3 2 2
4 4 5 6 1 12 16 11 11 13 5 2 2 3 6 8 4 3 6 4 5 8 16 18 12 8 7 4 4 3 5 4 4 4 3 4 8 13 15 17 19 20 21 18 16 13 12 10 9 8 5 4 3 3
4 5 3 7 7 2 18 11 10 6 2 2 4 7 8 7 10 9 8 10 8 12 18 16 5 4 6 4 6 7 4 5 3 3 2 6 6 8 12 17 19 19 20 18 16 13 12 10 9 9 6 3 4 5
5 3 2 1 2 5 10 14 5 2 3 4 8 12 13 8 7 4 6 10 10 14 8 6 6 7 4 5 7 4 5 3 2 4 3 7 10 9 10 15 19 19 19 17 15 14 13 12 9 6 5 3 2 1
9 6 4 3 7 8 13 9 4 6 7 13 10 9 9 9 8 5 6 9 11 11 8 4 1 7 6 9 8 6 8 8 5 6 8 9 12 11 11 18 20 20 19 18 17 16 14 11 8 7 7 5 3 2
9 4 4 4 6 6 5 6 5 5 12 8 11 11 9 9 8 8 6 8 10 8 5 5 5 7 9 11 11 10 8 6 5 8 7 10 11 10 14 18 20 22 21 20 18 13 11 10 8 7 6 5 4 2
11 10 9 2 2 3 3 4 5 5 4 2 6 8 9 7 6 10 12 11 11 9 7 5 7 13 11 11 8 9 8 6 6 7 5 5 7 12 20 25 20 25 22 15 8 13 12 10 7 7 6 5 4 3
13 10 13 10 3 3 3 3 5 5 5 5 4 6 6 8 9 9 10 11 11 7 9 15 16 16 14 11 9 10 11 9 10 11 12 10 11 16 19 25 24 19 10 11 15 14 13 9 8 8 6 5 4 4
9 9 5 9 5 4 4 6 5 4 4 5 6 6 6 7 8 9 10 12 10 14 14 16 16 15 12 11 10 11 10 12 12 10 11 14 16 25 30 22 17 8 13 15 14 12 10 9 8 8 7 6 6 5
10 9 6 5 4 4 5 4 5 5 4 3 3 3 4 5 3 7 6 10 12 14 14 14 13 14 13 9 10 11 12 9 8 8 9 12 21 28 27 18 13 16 16 14 12 10 9 10 10 9 8 6 4 5
8 7 4 5 7 4 3 4 6 4 5 7 4 5 3 2 4 5 5 8 9 6 7 8 6 6 7 7 7 7 7 6 8 11 14 16 29 29 14 13 17 16 13 12 12 11 11 10 9 9 8 7 5 3
4 5 3 4 5 4 5 4 6 6 5 6 5 4 3 6 3 3 3 2 3 4 5 5 5 5 4 3 2 3 5 10 12 13 14 20 29 17 14 15 16 14 13 13 13 14 12 10 9 9 6 5 4 3
3 8 6 6 5 6 4 3 3 4 2 2 2 4 3 3 4 4 2 1 2 2 4 4 3 3 3 3 3 5 8 10 12 15 22 21 18 16 16 19 18 15 14 13 13 13 12 10 9 8 6 5 5 6
4 6 7 8 5 4 5 5 1 2 3 5 3 2 2 3 2 2 3 3 1 0 2 1 3 4 3 4 5 6 8 10 11 14 20 17 13 13 17 18 17 16 17 14 13 12 11 10 8 7 5 4 5 5
4 4 8 9 9 8 3 1 2 3 0 2 1 4 3 3 3 5 4 5 1 0 1 2 1 2 4 6 6 8 11 14 20 19 17 14 11 14 15 14 12 16 15 15 13 13 11 10 8 6 6 6 6 6
7 8 7 7 6 5 5 4 4 1 6 4 3 4 5 3 6 8 7 3 2 2 1 2 4 6 8 8 9 11 16 20 15 18 15 15 15 14 13 12 14 14 13 13 17 15 14 11 9 8 6 7 7 7
10 10 9 8 9 6 8 8 5 4 4 6 2 1 2 7 9 10 7 5 2 1 2 5 7 6 8 10 12 13 12 9 10 13 13 13 13 14 13 12 12 12 13 13 12 17 17 14 13 10 8 9 8 8
5 9 11 13 14 16 17 16 14 12 11 10 7 7 3 3 0 2 5 6 5 4 6 6 6 6 7 10 11 12 9 8 10 9 10 10 11 11 11 10 8 8 10 12 13 13 14 14 12 10 9 9 8 8
8 12 11 8 11 9 10 11 14 17 16 14 12 6 5 4 2 2 4 5 6 6 8 6 5 6 8 9 9 7 8 9 9 9 13 12 11 13 10 8 8 9 11 11 12 13 13 12 11 10 9 8 8 7
9 8 9 9 8 7 9 9 8 6 6 6 6 4 2 1 3 2 5 7 6 8 8 9 7 6 9 10 9 8 8 8 10 12 14 14 12 10 8 9 9 10 12 13 13 13 12 10 9 9 7 6 6 6
Wind_Direction
315 319 320 320 322 324 323 321 314 290 273 260 254 258 257 247 237 214 260 347 168 237 142 147 134 156 182 241 281 98 226 191 212 222 225 144 231 134 244 315 330 280 274 234 259 257 192 2 171 328 356 338 350 8
313 315 317 318 319 320 318 318 317 293 263 252 240 244 244 235 228 202 221 278 154 158 131 140 125 129 108 27 305 191 346 12 25 158 186 165 189 191 216 217 177 235 342 349 331 43 81 53 60 32 6 347 347 332
311 312 312 313 315 315 314 312 316 301 253 244 229 234 237 226 220 205 206 214 156 164 153 164 153 122 99 95 199 282 180 139 162 279 292 69 200 252 209 224 225 173 205 270 221 133 117 82 69 40 26 18 8 341
310 309 311 312 310 308 310 313 309 305 244 236 226 222 227 218 215 205 199 214 191 207 232 155 157 144 133 64 93 147 144 157 139 193 238 253 218 216 179 24 243 39 165 218 243 172 161 136 92 57 34 31 40 70
303 309 311 314 310 305 306 306 295 300 239 228 222 214 219 209 205 201 200 214 209 209 260 150 164 141 128 109 109 109 132 168 194 203 221 190 79 219 195 265 242 191 212 213 321 91 287 96 87 44 41 38 48 70
303 310 311 311 304 301 299 298 286 277 227 220 214 208 210 201 190 171 209 228 207 190 221 192 138 159 148 136 129 110 97 89 167 251 122 145 79 263 227 234 236 205 216 232 233 158 164 155 129 52 73 43 51 73
303 307 310 307 304 305 305 289 258 255 208 207 204 203 202 195 186 193 221 202 192 181 208 184 181 176 172 171 171 141 99 112 343 130 207 193 179 251 248 222 222 189 189 187 184 179 195 185 170 78 26 263 205 146
304 309 310 315 310 308 306 268 239 217 191 191 190 192 196 194 195 213 220 187 184 179 206 228 125 172 187 197 182 195 201 198 94 154 184 216 165 288 250 233 201 195 187 191 194 201 213 212 245 247 258 264 234 215
306 307 314 314 305 308 291 242 226 180 178 178 173 168 169 175 190 211 190 182 187 204 217 222 189 172 178 192 165 170 221 226 162 206 182 208 82 232 231 211 194 189 193 198 204 212 218 227 241 254 253 248 245 240
301 311 311 305 297 299 267 191 172 166 167 163 154 149 187 185 185 171 185 178 178 219 233 239 208 150 187 184 187 181 202 252 235 111 168 216 248 241 225 207 192 184 187 185 191 208 221 237 240 241 241 246 256 250
313 316 309 294 275 217 213 186 163 161 160 152 173 188 176 150 137 191 191 199 174 214 212 212 204 159 186 191 164 221 120 162 237 126 252 249 258 206 193 195 186 183 186 191 205 210 212 223 214 217 221 257 277 296
322 323 303 269 221 203 197 173 170 169 165 168 163 147 148 178 196 211 194 180 212 214 181 190 184 181 155 165 183 184 216 187 233 142 240 269 236 175 176 184 187 185 185 187 191 193 192 187 181 173 206 276 314 316
317 335 307 230 206 219 186 183 178 174 165 153 179 193 178 168 202 210 191 192 200 181 175 164 163 163 145 188 145 189 204 202 133 219 235 233 135 180 180 183 188 184 183 183 180 177 178 185 187 185 196 228 268 297
311 318 335 239 218 200 180 176 173 171 161 178 185 236 213 188 229 204 217 205 178 186 170 175 157 178 141 181 152 201 99 192 228 229 241 193 193 194 187 188 192 193 191 190 188 184 185 187 190 191 191 192 206 239
299 314 359 2 342 202 177 174 168 168 167 187 196 248 221 247 259 232 224 196 174 172 165 164 164 182 159 150 202 134 184 227 219 230 240 173 186 192 193 194 196 198 196 196 196 196 200 202 206 211 215 222 231 244
247 244 14 7 343 228 183 168 160 146 133 135 242 249 244 251 240 215 209 196 159 163 169 180 153 194 175 198 186 198 208 213 195 183 232 182 183 196 205 203 198 198 197 197 199 201 205 207 197 188 188 215 268 277
229 262 140 165 302 161 177 167 149 117 166 228 235 239 259 289 276 224 196 180 165 166 186 178 197 179 147 206 204 197 217 229 220 251 280 252 232 232 225 198 190 187 185 187 184 178 174 171 172 180 202 190 154 103
219 240 138 131 116 139 138 145 151 187 237 240 247 248 225 243 251 220 190 176 173 193 197 221 211 197 212 215 213 212 230 251 288 290 284 269 255 235 211 186 177 171 168 165 161 160 158 160 161 169 161 150 121 61
216 167 122 134 159 161 187 205 207 243 227 248 246 252 245 247 231 226 197 186 200 203 218 204 222 226 237 241 256 258 261 252 272 298 280 272 241 221 183 175 166 155 153 156 155 155 172 167 173 173 168 149 153 97
215 204 186 158 151 196 224 217 208 255 254 214 234 238 232 233 220 214 211 209 205 209 221 220 237 240 251 272 281 267 274 239 275 279 264 231 206 186 181 168 157 152 144 147 169 171 172 168 173 175 171 165 167 166
214 225 202 206 273 247 256 237 239 248 278 257 261 223 231 211 219 207 201 192 200 221 228 232 246 258 273 270 254 252 256 249 262 270 276 216 192 182 162 158 151 145 172 189 183 182 182 188 195 191 190 183 187 183
190 183 182 199 216 248 259 236 255 290 259 266 261 234 240 213 207 210 196 202 234 234 235 247 254 261 258 265 262 256 252 259 264 251 230 217 186 175 163 158 147 155 180 183 181 185 190 193 188 189 189 195 194 203
168 176 188 192 215 233 260 226 239 226 241 232 224 237 215 213 202 176 219 228 244 245 246 251 256 253 255 249 262 267 267 260 239 226 203 177 184 170 155 169 213 188 178 179 182 182 179 179 176 174 182 174 186 212
148 169 202 202 211 254 233 229 217 236 232 222 239 247 223 193 177 217 242 231 239 236 237 249 245 237 238 246 249 256 252 220 188 166 170 171 168 165 179 177 179 179 178 179 177 176 172 167 173 171 186 195 195 197
170 197 211 236 217 232 233 228 212 212 240 206 226 227 184 180 220 236 238 199 211 244 222 207 201 218 240 231 224 197 178 168 170 162 163 177 168 172 164 173 168 175 175 171 173 173 172 172 174 181 183 191 202 208
216 202 205 207 206 217 220 238 218 220 222 251 277 320 232 222 221 237 155 36 41 124 154 169 180 196 213 209 192 184 171 165 170 175 165 168 175 177 173 171 172 173 175 172 168 170 175 182 188 191 198 199 225 217
232 205 204 223 252 260 264 241 247 279 243 219 203 228 226 223 220 81 66 33 66 117 202 226 253 249 256 199 171 155 165 174 168 173 166 163 170 188 181 179 184 185 179 179 179 177 178 181 187 197 204 203 202 201
254 264 228 202 216 225 242 344 208 259 316 353 118 30 24 87 274 312 345 356 79 25 352 344 295 173 167 166 152 137 142 155 157 161 171 167 165 172 177 181 183 181 185 190 192 193 195 197 197 204 208 213 198 198
230 219 224 239 227 220 231 230 251 193 143 116 137 191 198 195 311 281 308 311 278 67 76 89 100 121 131 133 138 143 146 150 161 162 160 161 161 173 176 181 182 184 191 204 206 203 208 208 206 209 210 209 204 196
235 224 239 241 240 239 237 231 257 262 209 198 244 226 174 230 253 258 268 223 187 150 132 133 129 133 143 146 146 149 157 160 166 173 176 174 171 172 176 183 192 204 212 215 206 200 205 196 194 197 205 196 193 197
229 218 236 245 251 248 252 254 255 251 249 259 264 274 311 179 218 267 198 181 169 143 139 133 132 141 155 155 157 160 167 172 171 158 159 164 163 163 166 169 177 187 182 181 178 174 177 183 192 197 190 195 199 205
216 225 225 240 253 249 240 246 240 237 241 237 240 233 209 192 150 140 164 145 151 150 159 138 125 137 138 148 153 162 155 165 168 161 159 159 158 159 160 161 158 162 166 169 172 175 175 178 183 188 193 201 209 216
213 214 221 248 261 241 210 202 202 206 203 202 193 192 168 149 116 128 156 155 161 167 162 156 131 141 147 141 144 143 135 143 161 165 168 172 167 166 166 169 164 161 160 158 157 161 167 172 178 184 191 199 207 218